Darstellungsparameter: Aktuell verwendete Einstellungen:
Skalierung der Graphiken ... ?
xyx+y,   Skalierungsfaktor:      Skalierung: Modus: x, Faktor: 1
Darstellungszeitraum ... ?
Vom - - bis: - -   Zeitraum: 26.01.2021 - 26.01.2021
Min/Max/Avg-Anzeige ... ?
Zeige MMA aktuell
Zeige MMA Monat
Zeige MMA alles
Zeige --A aktuell
Zeige --A Monat
Zeige --A alles
Keine MMA-Anzeige
MMA:
Keine MMA-Graphiken
MMA-Basis: 26.01.2021 - 26.01.2021
Quicknavigation für Darstellung... ?
Tage:      1T, 2T, 3T, 5T -1T -2T -3T -5T +1T +2T +3T +5T
Wochen: 1W, 2W, 3W -1W -2W -3W +1W +2W +3W
Monate: 1M, 3M, 6M -1M -3M -6M +1M +3M +6M
Jahre:    1J, 3J, 5J, 10J -1J -3J -5J -10J +1J +3J +5J +10J
Nutze für die Darstellung ... ?
Originaldaten oder Mittelwerte auf ...
Stundenbasis Tagesbasis Wochenbasis
Monatsbasis Jahresbasis      Datenbasis: Original-Daten
Darstellen als:
Statistik (Auto) Statistik J:M      Darstellung:

Der gewünschte Datumsbereich war nicht gültig/verfügbar und wurde korrigiert....
Das angegebene Enddatum (15.02.2025 23:59:59) liegt in der Zukunft.
Das angegebene Startdatum (15.02.2025 00:00:00) liegt in der Zukunft.


Zur Graphik,    zurück zur Übersicht aller Sensoren.
 
Tabellarische Datenbersicht: ?
 
Sensor: Nr:Datum:Temp:Feuchte:Taupunkt:
Aussen-T/F 1 26-01-2021 01:00:00 1.8 C 88 % 0.03 C
2 26-01-2021 01:05:00 1.8 C 88 % 0.03 C
3 26-01-2021 01:10:00 1.8 C 88 % 0.03 C
4 26-01-2021 01:15:00 1.8 C 88 % 0.03 C
5 26-01-2021 01:20:00 1.8 C 88 % 0.03 C
6 26-01-2021 01:25:00 1.8 C 88 % 0.03 C
7 26-01-2021 01:30:00 1.7 C 89 % 0.09 C
8 26-01-2021 01:35:00 1.7 C 89 % 0.09 C
9 26-01-2021 01:40:00 1.7 C 89 % 0.09 C
10 26-01-2021 01:45:00 1.7 C 89 % 0.09 C
11 26-01-2021 01:50:00 1.7 C 89 % 0.09 C
12 26-01-2021 01:55:00 1.7 C 89 % 0.09 C
13 26-01-2021 02:00:00 1.8 C 89 % 0.19 C
14 26-01-2021 02:05:00 1.8 C 89 % 0.19 C
15 26-01-2021 02:10:00 1.8 C 89 % 0.19 C
16 26-01-2021 02:15:00 1.8 C 89 % 0.19 C
17 26-01-2021 02:20:00 1.9 C 89 % 0.28 C
18 26-01-2021 02:25:00 1.9 C 89 % 0.28 C
19 26-01-2021 02:30:00 1.9 C 88 % 0.13 C
20 26-01-2021 02:35:00 1.9 C 89 % 0.28 C
21 26-01-2021 02:40:00 1.8 C 89 % 0.19 C
22 26-01-2021 02:45:00 1.8 C 89 % 0.19 C
23 26-01-2021 02:50:00 1.9 C 89 % 0.28 C
24 26-01-2021 02:55:00 2.1 C 88 % 0.33 C
25 26-01-2021 03:00:00 2.1 C 88 % 0.33 C
Sensor: Nr:Datum:Temp:Feuchte:Taupunkt:
Aussen-T/F 26 26-01-2021 03:05:00 2.1 C 88 % 0.33 C
27 26-01-2021 03:10:00 2 C 88 % 0.23 C
28 26-01-2021 03:15:00 2 C 88 % 0.23 C
29 26-01-2021 03:20:00 2 C 89 % 0.38 C
30 26-01-2021 03:25:00 2 C 89 % 0.38 C
31 26-01-2021 03:30:00 2.1 C 89 % 0.48 C
32 26-01-2021 03:35:00 2.1 C 88 % 0.33 C
33 26-01-2021 03:40:00 2.1 C 88 % 0.33 C
34 26-01-2021 03:45:00 2.1 C 89 % 0.48 C
35 26-01-2021 03:50:00 2.1 C 89 % 0.48 C
36 26-01-2021 03:55:00 2.1 C 89 % 0.48 C
37 26-01-2021 04:00:00 2.1 C 89 % 0.48 C
38 26-01-2021 04:05:00 2.1 C 89 % 0.48 C
39 26-01-2021 04:10:00 2.2 C 89 % 0.58 C
40 26-01-2021 04:15:00 2.2 C 89 % 0.58 C
41 26-01-2021 04:20:00 2.3 C 88 % 0.52 C
42 26-01-2021 04:25:00 2.4 C 88 % 0.62 C
43 26-01-2021 04:30:00 2.4 C 88 % 0.62 C
44 26-01-2021 04:35:00 2.4 C 88 % 0.62 C
45 26-01-2021 04:40:00 2.5 C 88 % 0.72 C
46 26-01-2021 04:45:00 2.5 C 88 % 0.72 C
47 26-01-2021 04:50:00 2.6 C 88 % 0.82 C
48 26-01-2021 04:55:00 2.6 C 88 % 0.82 C
49 26-01-2021 05:00:00 2.5 C 88 % 0.72 C
50 26-01-2021 05:05:00 2.5 C 88 % 0.72 C
Sensor: Nr:Datum:Temp:Feuchte:Taupunkt:
Aussen-T/F 51 26-01-2021 05:10:00 2.5 C 89 % 0.88 C
52 26-01-2021 05:15:00 2.6 C 89 % 0.97 C
53 26-01-2021 05:20:00 2.6 C 89 % 0.97 C
54 26-01-2021 05:25:00 2.7 C 88 % 0.92 C
55 26-01-2021 05:30:00 2.8 C 88 % 1.02 C
56 26-01-2021 05:35:00 3 C 88 % 1.21 C
57 26-01-2021 05:40:00 3.2 C 87 % 1.25 C
58 26-01-2021 05:45:00 3.2 C 86 % 1.09 C
59 26-01-2021 05:50:00 3.3 C 86 % 1.19 C
60 26-01-2021 05:55:00 3.3 C 86 % 1.19 C
61 26-01-2021 06:00:00 3.2 C 87 % 1.25 C
62 26-01-2021 06:05:00 3.2 C 87 % 1.25 C
63 26-01-2021 06:10:00 3.2 C 87 % 1.25 C
64 26-01-2021 06:15:00 3.2 C 87 % 1.25 C
65 26-01-2021 06:20:00 3.2 C 87 % 1.25 C
66 26-01-2021 06:25:00 3.2 C 87 % 1.25 C
67 26-01-2021 06:30:00 3.2 C 87 % 1.25 C
68 26-01-2021 06:35:00 3.2 C 87 % 1.25 C
69 26-01-2021 06:40:00 3.2 C 87 % 1.25 C
70 26-01-2021 06:45:00 3.1 C 87 % 1.15 C
71 26-01-2021 06:50:00 3.1 C 88 % 1.31 C
72 26-01-2021 06:55:00 3.1 C 88 % 1.31 C
73 26-01-2021 07:00:00 3.1 C 88 % 1.31 C
74 26-01-2021 07:05:00 3.2 C 88 % 1.41 C
75 26-01-2021 07:10:00 3.2 C 87 % 1.25 C
Sensor: Nr:Datum:Temp:Feuchte:Taupunkt:
Aussen-T/F 76 26-01-2021 07:15:00 3.2 C 87 % 1.25 C
77 26-01-2021 07:20:00 3.3 C 86 % 1.19 C
78 26-01-2021 07:25:00 3.4 C 86 % 1.29 C
79 26-01-2021 07:30:00 3.4 C 86 % 1.29 C
80 26-01-2021 07:35:00 3.4 C 86 % 1.29 C
81 26-01-2021 07:40:00 3.5 C 85 % 1.22 C
82 26-01-2021 07:45:00 3.6 C 85 % 1.32 C
83 26-01-2021 07:50:00 3.7 C 85 % 1.42 C
84 26-01-2021 07:55:00 3.7 C 84 % 1.25 C
85 26-01-2021 08:00:00 3.8 C 84 % 1.35 C
86 26-01-2021 08:05:00 3.8 C 83 % 1.19 C
87 26-01-2021 08:10:00 3.8 C 83 % 1.19 C
88 26-01-2021 08:15:00 3.8 C 83 % 1.19 C
89 26-01-2021 08:20:00 3.8 C 83 % 1.19 C
90 26-01-2021 08:25:00 3.8 C 83 % 1.19 C
91 26-01-2021 08:30:00 3.8 C 83 % 1.19 C
92 26-01-2021 08:35:00 3.8 C 83 % 1.19 C
93 26-01-2021 08:40:00 3.8 C 83 % 1.19 C
94 26-01-2021 08:45:00 3.8 C 83 % 1.19 C
95 26-01-2021 08:50:00 3.8 C 83 % 1.19 C
96 26-01-2021 08:55:00 3.8 C 83 % 1.19 C
97 26-01-2021 09:00:00 3.8 C 84 % 1.35 C
98 26-01-2021 09:05:00 3.7 C 84 % 1.25 C
99 26-01-2021 09:10:00 3.8 C 84 % 1.35 C
100 26-01-2021 09:15:00 3.8 C 84 % 1.35 C
Sensor: Nr:Datum:Temp:Feuchte:Taupunkt:
Aussen-T/F 101 26-01-2021 09:20:00 3.8 C 84 % 1.35 C
102 26-01-2021 09:25:00 3.8 C 83 % 1.19 C
103 26-01-2021 09:30:00 3.8 C 84 % 1.35 C
104 26-01-2021 09:35:00 3.8 C 84 % 1.35 C
105 26-01-2021 09:40:00 3.8 C 83 % 1.19 C
106 26-01-2021 09:45:00 3.8 C 84 % 1.35 C
107 26-01-2021 09:50:00 3.9 C 84 % 1.45 C
108 26-01-2021 09:55:00 3.9 C 84 % 1.45 C
109 26-01-2021 10:00:00 4 C 84 % 1.55 C
110 26-01-2021 10:05:00 4.1 C 83 % 1.48 C
111 26-01-2021 10:10:00 4.1 C 83 % 1.48 C
112 26-01-2021 10:15:00 4.2 C 83 % 1.58 C
113 26-01-2021 10:20:00 4.2 C 83 % 1.58 C
114 26-01-2021 10:25:00 4.2 C 83 % 1.58 C
115 26-01-2021 10:30:00 4.3 C 83 % 1.67 C
116 26-01-2021 10:35:00 4.3 C 82 % 1.51 C
117 26-01-2021 10:40:00 4.3 C 82 % 1.51 C
118 26-01-2021 10:45:00 4.3 C 82 % 1.51 C
119 26-01-2021 10:50:00 4.4 C 82 % 1.6 C
120 26-01-2021 10:55:00 4.4 C 81 % 1.43 C
121 26-01-2021 11:00:00 4.4 C 82 % 1.6 C
122 26-01-2021 11:05:00 4.4 C 81 % 1.43 C
123 26-01-2021 11:10:00 4.5 C 81 % 1.53 C
124 26-01-2021 11:15:00 4.5 C 81 % 1.53 C
125 26-01-2021 11:20:00 4.6 C 81 % 1.63 C
Sensor: Nr:Datum:Temp:Feuchte:Taupunkt:
Aussen-T/F 126 26-01-2021 11:25:00 4.6 C 81 % 1.63 C
127 26-01-2021 11:30:00 4.6 C 81 % 1.63 C
128 26-01-2021 11:35:00 4.6 C 81 % 1.63 C
129 26-01-2021 11:40:00 4.7 C 81 % 1.73 C
130 26-01-2021 11:45:00 4.7 C 81 % 1.73 C
131 26-01-2021 11:50:00 4.7 C 80 % 1.55 C
132 26-01-2021 11:55:00 4.7 C 80 % 1.55 C
133 26-01-2021 12:00:00 4.7 C 81 % 1.73 C
134 26-01-2021 12:05:00 4.7 C 81 % 1.73 C
135 26-01-2021 12:10:00 4.7 C 81 % 1.73 C
136 26-01-2021 12:15:00 4.8 C 81 % 1.82 C
137 26-01-2021 12:20:00 4.8 C 81 % 1.82 C
138 26-01-2021 12:25:00 4.8 C 81 % 1.82 C
139 26-01-2021 12:30:00 4.9 C 81 % 1.92 C
140 26-01-2021 12:35:00 4.9 C 81 % 1.92 C
141 26-01-2021 12:40:00 5 C 81 % 2.02 C
142 26-01-2021 12:45:00 5.1 C 80 % 1.94 C
143 26-01-2021 12:50:00 5.1 C 80 % 1.94 C
144 26-01-2021 12:55:00 5.1 C 80 % 1.94 C
145 26-01-2021 13:00:00 5.2 C 80 % 2.04 C
146 26-01-2021 13:05:00 5.2 C 80 % 2.04 C
147 26-01-2021 13:10:00 5.2 C 79 % 1.86 C
148 26-01-2021 13:15:00 5.2 C 79 % 1.86 C
149 26-01-2021 13:20:00 5.2 C 79 % 1.86 C
150 26-01-2021 13:25:00 5.2 C 79 % 1.86 C
Sensor: Nr:Datum:Temp:Feuchte:Taupunkt:
Aussen-T/F 151 26-01-2021 13:30:00 5.1 C 79 % 1.77 C
152 26-01-2021 13:35:00 5.1 C 80 % 1.94 C
153 26-01-2021 13:40:00 5.1 C 79 % 1.77 C
154 26-01-2021 13:45:00 5.1 C 80 % 1.94 C
155 26-01-2021 13:50:00 5.1 C 80 % 1.94 C
156 26-01-2021 13:55:00 5.1 C 80 % 1.94 C
157 26-01-2021 14:00:00 5.1 C 80 % 1.94 C
158 26-01-2021 14:05:00 5 C 80 % 1.84 C
159 26-01-2021 14:10:00 5.1 C 80 % 1.94 C
160 26-01-2021 14:15:00 5 C 80 % 1.84 C
161 26-01-2021 14:20:00 5 C 79 % 1.67 C
162 26-01-2021 14:25:00 5 C 79 % 1.67 C
163 26-01-2021 14:30:00 5 C 80 % 1.84 C
164 26-01-2021 14:35:00 5 C 80 % 1.84 C
165 26-01-2021 14:40:00 5 C 80 % 1.84 C
166 26-01-2021 14:45:00 5 C 79 % 1.67 C
167 26-01-2021 14:50:00 5 C 80 % 1.84 C
168 26-01-2021 14:55:00 4.9 C 80 % 1.75 C
169 26-01-2021 15:00:00 4.9 C 79 % 1.57 C
170 26-01-2021 15:05:00 4.8 C 79 % 1.47 C
171 26-01-2021 15:10:00 4.8 C 80 % 1.65 C
172 26-01-2021 15:15:00 4.8 C 80 % 1.65 C
173 26-01-2021 15:20:00 4.8 C 80 % 1.65 C
174 26-01-2021 15:25:00 4.7 C 80 % 1.55 C
175 26-01-2021 15:30:00 4.7 C 80 % 1.55 C
Sensor: Nr:Datum:Temp:Feuchte:Taupunkt:
Aussen-T/F 176 26-01-2021 15:35:00 4.7 C 80 % 1.55 C
177 26-01-2021 15:40:00 4.6 C 80 % 1.46 C
178 26-01-2021 15:45:00 4.6 C 80 % 1.46 C
179 26-01-2021 15:50:00 4.6 C 80 % 1.46 C
180 26-01-2021 15:55:00 4.6 C 80 % 1.46 C
181 26-01-2021 16:00:00 4.6 C 80 % 1.46 C
182 26-01-2021 16:05:00 4.6 C 80 % 1.46 C
183 26-01-2021 16:10:00 4.6 C 80 % 1.46 C
184 26-01-2021 16:15:00 4.6 C 80 % 1.46 C
185 26-01-2021 16:20:00 4.6 C 80 % 1.46 C
186 26-01-2021 16:25:00 4.6 C 80 % 1.46 C
187 26-01-2021 16:30:00 4.6 C 80 % 1.46 C
188 26-01-2021 16:35:00 4.6 C 80 % 1.46 C
189 26-01-2021 16:40:00 4.6 C 79 % 1.28 C
190 26-01-2021 16:45:00 4.5 C 79 % 1.18 C
191 26-01-2021 16:50:00 4.4 C 79 % 1.09 C
192 26-01-2021 16:55:00 4.4 C 79 % 1.09 C
193 26-01-2021 17:00:00 4.3 C 79 % 0.99 C
194 26-01-2021 17:05:00 4.3 C 79 % 0.99 C
195 26-01-2021 17:10:00 4.3 C 79 % 0.99 C
196 26-01-2021 17:15:00 4.2 C 78 % 0.71 C
197 26-01-2021 17:20:00 4.2 C 79 % 0.89 C
198 26-01-2021 17:25:00 4.2 C 79 % 0.89 C
199 26-01-2021 17:30:00 4.1 C 78 % 0.62 C
200 26-01-2021 17:35:00 4.1 C 78 % 0.62 C
Sensor: Nr:Datum:Temp:Feuchte:Taupunkt:
Aussen-T/F 201 26-01-2021 17:40:00 4 C 78 % 0.52 C
202 26-01-2021 17:45:00 3.9 C 78 % 0.42 C
203 26-01-2021 17:50:00 3.9 C 79 % 0.6 C
204 26-01-2021 17:55:00 3.8 C 79 % 0.5 C
205 26-01-2021 18:00:00 3.8 C 79 % 0.5 C
206 26-01-2021 18:05:00 3.8 C 78 % 0.33 C
207 26-01-2021 18:10:00 3.7 C 79 % 0.4 C
208 26-01-2021 18:15:00 3.7 C 79 % 0.4 C
209 26-01-2021 18:20:00 3.6 C 79 % 0.31 C
210 26-01-2021 18:25:00 3.4 C 79 % 0.11 C
211 26-01-2021 18:30:00 3.3 C 80 % 0.19 C
212 26-01-2021 18:35:00 3.2 C 81 % 0.26 C
213 26-01-2021 18:40:00 2.9 C 81 % -0.03 C

Legende:
   Min
   Max


Maximal/Minimal-Werte vom 26.01.2021 - 26.01.2021

Sensor Min Max Avg
Temp
(Aussen-T/F)
1.7 °C
26-01-2021  01:30:00
5.2 °C
26-01-2021  13:00:00
3.66 °C
Feuchte
(Aussen-T/F)
78 %
26-01-2021  17:15:00
89 %
26-01-2021  01:30:00
83.56 %
Taupunkt
(Aussen-T/F)
-0.03 C
26-01-2021  18:40:00
2.04 C
26-01-2021  13:00:00
1.12 C

Die Daten stammen von einer Davis Vantage Pro 2 Wetter-Station und werden unter Linux mit der Software wview2wettercgi und aufbereitet. Alle Angaben erfolgen ohne Gewähr für ihre Vollständigkeit oder Richtigkeit.
Kontakt: Rainer Krienke krienke@uni-koblenz.de . Meine Webseiten an der Uni Koblenz oder privat.
Version: $Revision: 0.78 $